(11) Parthenope
ephemeris date magn radius delta ra dec elong phase
Today18 Jul 202511.92.654 AU3.667 AU07h31m+20°51'4.1°1.6°
Opposition25 Feb 202610.22.689 AU1.700 AU10h41m+12°24'176.1°1.4°
(11) Parthenope - 2025-07-18
astro.vanbuitenen.nl


 
-1 year
-1 month
-1 day
Now
+1 day
+1 month
+1 year

The interactive orbit chart above shows the body's path through the solar system and its position at the given date. Green and blue lines are shown perpendicular to the ecliptic plane: Green if the path is above the ecliptic plane, blue if it is below. (Left-click and drag to rotate the view; Right-click and drag to move the view; Use scroll wheel to zoom in our out.)

The orbital elements of Parthenope are:

            e (Eccentricity)                : 0.0997989
            a (Semimajor axis)              : 2.4543177
            i (Inclination)                 : 4.63342
            Ω (Longitude of ascending node) : 125.47456
            ω (Argument of perihelion)      : 196.37206
            M (Mean anomaly)                : 122.46023
            Epoch                           : 2025 May 05

            L (Longitude of perihelion)     : 141.79597
            B (Latitude of perihelion)      : -1.30473
            P (Orbital period in years)     : 3.84            
        

The light curve chart below shows the estimated development of the minor planet's magnitude.


The all-sky chart below shows the path of the minor planet over the same period as the light curve. The current position is marked yellow.





The following chart shows the path of the minor planet in the next few days. The field of view is optimized for (~10x50) binoculars and finderscopes. A more printer-friendly version of the same chart can be found below.




Ephemerides:
Date       Time       RA (2000)    DEC (2000)    delta   radius  elong  phase   PA    magn
2025-07-18 00:00 UT   07 31 34.4   +20 51 08     3.667    2.654    4.1    1.6   266   11.9 
2025-07-18 22:48 UT   07 33 16.3   +20 48 04     3.667    2.655    4.6    1.7   268   11.9 
2025-07-19 00:00 UT   07 33 21.6   +20 47 54     3.667    2.655    4.6    1.8   268   11.9 
2025-07-20 00:00 UT   07 35 08.7   +20 44 36     3.666    2.655    5.1    2.0   269   11.9 
2025-07-21 00:00 UT   07 36 55.6   +20 41 13     3.665    2.656    5.6    2.2   271   11.9 
2025-07-22 00:00 UT   07 38 42.4   +20 37 46     3.664    2.657    6.2    2.4   272   11.9 
2025-07-23 00:00 UT   07 40 29.0   +20 34 16     3.664    2.657    6.7    2.6   273   11.9 
2025-07-24 00:00 UT   07 42 15.5   +20 30 41     3.662    2.658    7.2    2.8   273   12.0 
2025-07-25 00:00 UT   07 44 01.9   +20 27 02     3.661    2.658    7.8    3.0   274   12.0 
2025-07-26 00:00 UT   07 45 48.1   +20 23 19     3.660    2.659    8.3    3.2   275   12.0 
2025-07-27 00:00 UT   07 47 34.1   +20 19 31     3.658    2.659    8.8    3.4   275   12.0 
2025-07-28 00:00 UT   07 49 20.0   +20 15 40     3.657    2.660    9.4    3.6   276   12.0 
2025-07-29 00:00 UT   07 51 05.6   +20 11 45     3.655    2.661    9.9    3.8   276   12.0 
2025-07-30 00:00 UT   07 52 51.2   +20 07 47     3.653    2.661   10.4    4.0   277   12.0 
2025-07-31 00:00 UT   07 54 36.5   +20 03 44     3.651    2.662   11.0    4.2   277   12.0 
2025-08-01 00:00 UT   07 56 21.6   +19 59 37     3.649    2.662   11.5    4.4   278   12.1 
2025-08-02 00:00 UT   07 58 06.6   +19 55 27     3.647    2.663   12.0    4.6   278   12.1 
2025-08-03 00:00 UT   07 59 51.4   +19 51 13     3.644    2.663   12.6    4.8   278   12.1 
2025-08-04 00:00 UT   08 01 36.0   +19 46 56     3.642    2.664   13.1    5.0   279   12.1 
2025-08-05 00:00 UT   08 03 20.3   +19 42 34     3.639    2.664   13.7    5.2   279   12.1 
2025-08-06 00:00 UT   08 05 04.5   +19 38 10     3.636    2.665   14.2    5.4   279   12.1 
2025-08-07 00:00 UT   08 06 48.5   +19 33 41     3.633    2.665   14.7    5.6   280   12.1 


    Terminology:
            
    delta:  distance between minor planet and earth in AU
    radius: distance between minor planet and sun in AU
    magn:   magnitude (brightness) estimate    
    ra:     right ascension in hours (24h = 360deg)
    dec:    declination in degrees
    elong:  elongation in degrees (angle sun-earth-minor planet)    
    phase:  phase angle in degrees (angle sun-minor planet-earth)        
    AU:     Astronomical Unit (mean distance between earth and sun: 149597870.7 km
    

Orbital elements provided by the MPC (Minor Planet Center).
Calculations by a modified version of AAPlus, a C# implementation of the AA+ project by PJ Naughter from the algorithms presented in the book "Astronomical Algorithms" by Jean Meeus.
NGC2000 dso catalog and star labels from VizieR as provided by the Strasbourg astronomical Data Center.
Tycho2 catalog from the ESO archive.